Flag for United Kingdom Weather past 2 weeks in Edinburgh, Scotland, United Kingdom

Now
57 °F

Sunny.


Feels Like: 54 °F
Forecast: 37 / 53 °F
Wind: 15 mph from Northeast

Location: Edinburgh Airport


UV Index: 3 (Moderate)

Visibility: 10 mi


Pressure: 30.12 "Hg

Humidity: 48%

Dew point: 37 °F

Location of EdinburghLocation

Historic Weather in Edinburgh

°F

Edinburgh temperature yesterday

Maximum temperature yesterday: 57 °F (at 3:50 PM)
Minimum temperature yesterday: 30 °F (at 5:20 AM)
Average temperature yesterday: 44 °F

Past Weeks' High & Low Weather Summary

 TemperatureHumidityPressure
High61 °F (Apr 6, 11:50 AM)100% (Apr 4, 11:50 PM)30.39 "Hg (Apr 4, 11:50 PM)
Low30 °F (Apr 15, 4:50 AM)39% (Apr 14, 3:50 PM)29.47 "Hg (Apr 6, 10:50 AM)
Average48 °F75%29.96 "Hg
* Reported Apr 4 2:20 PM — Apr 19 2:50 PM, Edinburgh, Weather by CustomWeather, © 2014

Note: Actual official high and low records may vary slightly from our data, if they occured in-between our weather recording intervals... More about our weather records

Advertising

Historic Weather Conditions — Data for Previous 24 hours

 ConditionsComfort  
Time TempWeatherWind HumidityBarometerVisibility
2:50 PM
Apr 19
57 °FSunny.15 mph44%30.12 "Hg10 mi
2:20 PM57 °FSunny.16 mph44%30.12 "Hg10 mi
1:50 PM54 °FSunny.16 mph54%30.12 "Hg10 mi
1:20 PM55 °FSunny.15 mph55%30.12 "Hg10 mi
12:50 PM55 °FSunny.13 mph59%30.12 "Hg10 mi
12:20 PM54 °FSunny.13 mph63%30.15 "Hg10 mi
11:50 AM52 °FSunny.12 mph67%30.15 "Hg10 mi
11:20 AM52 °FSunny.10 mph62%30.15 "Hg10 mi
10:50 AM50 °FSunny.10 mph67%30.15 "Hg10 mi
10:20 AM50 °FSunny.10 mph67%30.15 "Hg10 mi
9:50 AM50 °FSunny.8 mph62%30.15 "Hg10 mi
9:20 AM48 °FCool.6 mph71%30.15 "HgN/A
8:50 AM46 °FSunny.2 mph71%30.15 "Hg10 mi
8:20 AM45 °FSunny.No wind76%30.15 "Hg10 mi
7:50 AM39 °FSunny.2 mph87%30.15 "Hg10 mi
7:20 AM34 °FSunny.No wind100%30.15 "Hg10 mi
6:50 AM34 °FClear.No wind93%30.15 "Hg10 mi
6:20 AM32 °FClear.No wind93%30.12 "Hg10 mi
5:50 AM34 °FClear.No wind87%30.12 "Hg10 mi
5:20 AM32 °FClear.3 mph93%30.12 "Hg10 mi
4:50 AM32 °FClear.No wind93%30.15 "Hg10 mi
4:20 AM34 °FClear.No wind93%30.15 "Hg10 mi
3:50 AM34 °FClear.No wind93%30.15 "Hg10 mi
3:20 AM36 °FClear.No wind87%30.15 "Hg10 mi
2:50 AM36 °FClear.2 mph87%30.15 "Hg10 mi
2:20 AM37 °FClear.3 mph81%30.15 "Hg10 mi
1:50 AM37 °FClear.3 mph87%30.15 "Hg10 mi
1:20 AM41 °FClear.2 mph76%30.15 "Hg10 mi
12:50 AM37 °FClear.3 mph87%30.15 "Hg10 mi
12:20 AM39 °FClear.5 mph93%30.15 "Hg10 mi
11:50 PM
Apr 18
37 °FChilly.2 mph93%30.15 "HgN/A
11:20 PM41 °FClear.2 mph81%30.15 "Hg10 mi
10:50 PM37 °FClear.No wind93%30.15 "Hg10 mi
10:20 PM39 °FClear.2 mph93%30.15 "Hg10 mi
9:50 PM41 °FClear.No wind93%30.15 "Hg10 mi
9:20 PM43 °FSunny.2 mph81%30.15 "Hg10 mi
8:50 PM43 °FSunny.5 mph81%30.15 "Hg10 mi
8:20 PM46 °FSunny.5 mph71%30.15 "Hg10 mi
7:50 PM50 °FSunny.5 mph67%30.12 "Hg10 mi
7:20 PM52 °FSunny.6 mph58%30.12 "Hg10 mi
6:50 PM57 °FSunny.3 mph39%30.12 "Hg10 mi
6:20 PM57 °FSunny.3 mph41%30.12 "Hg10 mi
5:50 PM57 °FSunny.8 mph41%30.12 "Hg10 mi
5:20 PM57 °FSunny.7 mph41%30.12 "Hg10 mi
4:50 PM57 °FSunny.7 mph41%30.15 "Hg10 mi
4:20 PM57 °FPassing clouds.5 mph41%30.15 "HgN/A
3:50 PM57 °FPassing clouds.7 mph41%30.15 "HgN/A
3:20 PM55 °FPassing clouds.8 mph44%30.15 "HgN/A
Weather by CustomWeather, © 2014

See weather overview